Погода в Кондракове

Россия / Владимирская область     55°47′57″N   41°54′30″E
темп.,
°C
ветер,
м/с
пор.,
м/с
влажн.,
%
обл.,
%
осадки,
мм/ч
давл.,
гПа
погр.,
м
18 апреля, вс
вс1800:00+7всв6136466 0.0 1022401
03:00+5всв512755 0.0 1022333
06:00+4всв512737 0.0 1022347
09:00+9всв695542 0.0 1022691
12:00+13в574296 0.0 10211462
15:00+13в5740100 0.0 10211912
18:00+11всв485094 0.0 1022448
21:00+9всв71368100 0.0 1023634
19 апреля, пн
пн1900:00+5всв61280100 0.1 1025618
03:00+4всв61076100 0.4 1025544
06:00+3всв61170100 0.1 1025543
09:00+4всв71060100 0.1 1026721
12:00+5всв71059100 0.1 10261050
15:00+7в71145100 0.1 10261494
18:00+7всв71143100 0.0 10251495
21:00+5в61151100 0.0 10261122
20 апреля, вт
вт2000:00+4в61155100 0.0 1026905
03:00+3в61271100 0.0 1026686
06:00+3в6126599 0.0 1025696
09:00+4вюв71172100 0.1 1026781
12:00+4вюв61283100 0.2 1025804
15:00+9вюв61255100 0.2 10231276
18:00+9в81351100 0.0 10201132
21:00+7вюв81551100 0.0 10191019
21 апреля, ср
ср2100:00+6вюв91753100 0.1 10161067
03:00+4вюв102086100 2.8 10131047
06:00+4юв91889100 4.1 10111070
09:00+4юв91788100 6.1 1010992
12:00+5юв91788100 0.1 10091024
15:00+6юв91789100 0.2 10091078
18:00+7ю71386100 0.3 10101212
21:00+6ююз71380100 0.4 10131051
22 апреля, чт
чт2200:00+5ююз71383100 0.1 1015851
03:00+5ююз51184100 0.1 1017637
06:00+5ю51089100 0.0 1019401
09:00+7ююз5980100 0.1 1020583
12:00+11ююз675196 0.1 10212014
15:00+11ююз575184 0.1 10221588
18:00+11ююз58596 0.0 1022510
21:00+7ю498024 0.0 1023166